This demonstration page uses our WeatherBlox Daily Observations layout. Learn more.

Hourly Observations for August 7, 2017

Temp ( °F °C ) Dew Point ( °F °C ) Humidity (%) Winds ( mph kmh ) Pressure ( in mb ) Visibility ( mi km ) Precip ( " mm )
12:54 am 00:54 Clear 62 16.7 60 15.6 93 93 N 5 7 30.05 1018 8 12.87472 0 0
1:54 am 01:54 Clear with Mist and Fog 60 15.6 60 15.6 100 100 NNW 5 7 30.06 1018 4 6.43736 0 0
2:54 am 02:54 Clear 59 15 58 14.4 96 96 N 5 7 30.06 1018 7 11.26538 0 0
3:54 am 03:54 Clear 60 15.6 59 15 96 96 N 5 7 30.06 1018 8 12.87472 0 0
4:54 am 04:54 Partly Cloudy 60 15.6 59 15 96 96 N 5 7 30.07 1018 8 12.87472 0 0
5:54 am 05:54 Clear 60 15.6 59 15 96 96 Calm 30.07 1018 7 11.26538 0 0
6:54 am 06:54 Sunny with Mist and Fog 61 16.1 59 15 93 93 N 5 7 30.08 1019 6 9.65604 0 0
7:54 am 07:54 Sunny 63 17.2 61 16.1 93 93 NNE 5 7 30.1 1019 7 11.26538 0 0
8:54 am 08:54 Sunny 67 19.4 63 17.2 87 87 N 10 17 30.11 1020 8 12.87472 0 0
9:54 am 09:54 Sunny 71 21.7 63 17.2 76 76 NNE 9 15 30.12 1020 10 16.0934 0 0
10:54 am 10:54 Sunny 74 23.3 62 16.7 67 67 N 10 17 30.13 1020 10 16.0934 0 0
11:54 am 11:54 Mostly Cloudy 76 24.4 63 17.2 64 64 NNE 12 19 30.14 1021 10 16.0934 0 0
12:54 pm 12:54 Partly Cloudy 77 25 62 16.7 60 60 NNE 8 13 30.14 1021 10 16.0934 0 0
1:54 pm 13:54 Mostly Cloudy 75 23.9 61 16.1 62 62 NNE 9 15 30.14 1021 10 16.0934 0 0
2:54 pm 14:54 Mostly Sunny 79 26.1 61 16.1 54 54 NNE 12 19 30.13 1020 10 16.0934 0 0
3:54 pm 15:54 Mostly Sunny 80 26.7 61 16.1 52 52 NNE 14 22 30.12 1020 10 16.0934 0 0
4:54 pm 16:54 Partly Cloudy 79 26.1 60 15.6 52 52 NNE 10 17 30.12 1020 10 16.0934 0 0
5:54 pm 17:54 Partly Cloudy 79 26.1 60 15.6 52 52 NE 9 15 30.11 1020 10 16.0934 0 0
6:54 pm 18:54 Sunny 77 25 57 13.9 50 50 NE 12 19 30.11 1020 10 16.0934 0 0
7:54 pm 19:54 Sunny 74 23.3 61 16.1 64 64 NNE 9 15 30.12 1020 10 16.0934 0 0
8:54 pm 20:54 Clear 67 19.4 61 16.1 81 81 NNE 7 11 30.14 1021 10 16.0934 0 0
9:54 pm 21:54 Clear 65 18.3 61 16.1 87 87 N 5 7 30.16 1022 10 16.0934 0 0
10:54 pm 22:54 Clear 66 18.9 61 16.1 84 84 N 3 6 30.17 1022 10 16.0934 0 0
11:54 pm 23:54 Clear 62 16.7 59 15 90 90 NNW 3 6 30.18 1022 10 16.0934 0 0

Powered by AerisWeather